Lid_Strength_Index
-0 -0 -1 -1 -1 -1 -1 -1 -1 -1 -1 -1 -1 -1 -1 -0 0 0 -0 1 -1 -1 0 1 1 1 2 2 2 2 2 2 3 3 3 4 4 3 4 4 4 4 3
0 0 0 -0 -1 -1 -1 -1 -1 -1 -1 -1 -1 -1 -1 -1 -0 -0 -0 0 -0 -1 0 1 1 1 1 2 2 2 2 2 3 3 4 4 4 4 4 4 4 4 4
0 1 1 0 0 -0 -1 -1 -1 -1 -1 -1 -0 -1 -1 -1 -0 0 -0 -1 0 0 -0 0 1 1 1 1 1 2 2 2 3 4 4 4 4 4 4 5 5 5 4
0 0 1 0 0 0 0 -0 -0 0 0 0 0 0 -0 -0 -1 0 0 -0 -0 0 1 1 1 2 1 1 1 1 2 2 3 4 4 4 5 5 5 5 5 5 5
-0 -0 -0 -0 0 0 1 0 -0 0 1 1 0 0 -0 0 -0 0 0 1 0 0 0 1 2 2 2 2 1 1 2 3 3 4 3 4 4 5 5 6 6 6 5
-1 -1 -1 -1 -1 -0 0 0 0 -0 0 1 2 1 0 -0 -0 -0 1 1 1 1 1 1 3 4 3 3 2 2 2 3 3 4 3 4 4 5 5 6 6 6 6
-0 -1 -0 -0 -1 0 0 0 0 1 1 0 2 2 1 0 0 0 0 1 1 2 2 2 3 3 5 4 4 3 2 2 2 3 3 3 4 5 5 6 6 6 6
-0 0 -0 -0 -0 0 0 0 1 1 1 1 2 3 5 3 1 1 0 1 2 2 3 3 4 4 5 6 6 4 3 2 2 2 3 3 4 4 5 5 5 6 5
-0 0 0 0 -0 -0 1 0 0 1 2 1 1 3 5 6 3 1 2 1 2 2 2 4 5 6 6 6 6 5 4 3 2 2 2 3 4 4 4 5 5 5 5
-0 -0 0 0 0 0 0 0 0 1 1 2 1 1 1 2 5 5 4 3 3 3 4 4 5 6 6 7 7 6 6 4 3 3 3 3 3 4 3 4 4 5 5
-0 -0 -0 0 1 1 1 1 0 1 1 1 2 2 2 2 2 4 5 4 5 5 5 5 5 6 7 8 8 8 7 5 4 5 3 3 4 4 4 4 4 4 5
0 0 -0 0 0 1 1 1 1 1 1 1 1 1 2 3 3 4 4 4 4 4 6 5 5 6 7 8 9 9 7 6 6 5 5 4 4 5 4 4 4 4 5
1 1 1 1 1 1 1 1 1 1 1 1 1 1 1 2 1 2 3 4 4 3 3 5 6 6 7 7 9 10 8 8 7 6 6 5 4 5 4 4 4 4 5
1 0 0 0 0 1 0 0 1 1 1 2 2 1 1 1 1 1 2 3 5 5 5 4 5 6 7 8 9 10 10 8 7 6 6 5 5 5 5 5 5 5 5
1 0 0 0 0 0 0 0 1 1 2 1 2 1 1 1 1 1 1 2 4 6 5 7 7 8 8 9 11 11 10 9 7 6 5 5 5 5 5 5 5 5 5
0 1 1 0 0 0 0 0 1 1 2 2 2 2 2 2 1 1 1 2 3 4 6 5 8 11 12 12 11 11 11 10 8 7 5 5 5 5 5 5 5 6 6
1 1 1 1 1 1 1 1 1 2 2 2 2 3 3 2 2 2 2 3 3 3 5 7 12 12 13 13 12 11 11 10 9 8 6 5 5 5 5 6 6 6 6
1 1 1 1 2 1 1 1 2 2 2 3 3 3 4 3 3 3 3 3 3 4 4 6 13 14 13 13 12 13 12 11 10 8 7 6 6 5 6 6 6 6 6
1 1 1 1 2 2 1 1 2 2 2 3 3 3 3 3 3 3 3 3 4 5 6 8 12 13 14 13 13 13 13 12 11 9 7 6 6 6 6 6 6 6 7
2 2 1 1 1 1 1 1 2 2 2 2 3 3 3 3 3 3 4 5 7 9 10 12 14 14 14 14 14 14 14 13 13 11 10 9 7 7 7 6 6 7 7
2 2 3 2 2 2 2 2 2 2 3 3 5 6 6 8 10 7 7 8 9 11 14 13 14 14 14 14 14 13 13 13 13 12 12 12 11 11 10 8 8 8 8
7 7 7 7 5 7 11 10 7 6 6 7 8 9 10 13 10 10 10 9 8 10 13 13 14 13 13 13 13 13 13 14 15 12 13 12 12 11 11 10 9 8 8
8 10 9 9 10 10 9 10 10 7 8 8 9 11 12 12 12 12 9 9 10 10 10 12 13 12 12 12 12 13 13 13 13 13 12 13 11 12 11 11 9 8 8
10 10 11 10 11 11 10 10 10 9 10 11 11 11 11 12 12 12 11 12 12 13 13 12 12 12 12 12 12 12 12 13 13 13 12 13 11 12 12 12 9 9 9
12 12 12 12 12 12 10 10 11 12 13 13 13 12 12 12 11 11 12 13 14 14 11 10 10 9 10 9 10 12 13 13 13 13 13 13 13 13 13 14 13 10 11
13 13 14 13 14 13 11 11 11 13 13 13 13 13 13 12 11 11 13 13 14 13 12 12 12 11 11 10 10 11 11 12 12 12 13 13 14 14 15 14 14 14 14